Tracking 19709 objects as of 20-Jun-2019
HD Live streaming from Space Station
objects crossing your sky now

FENGYUN 1C DEB

Track FENGYUN 1C DEB now!
10-day predictions


NORAD ID: 31665
Int'l Code: 1999-025CBX
Perigee: 832.5 km
Apogee: 1,126.8 km
Inclination: 98.5 °
Period: 104.5 minutes
Semi major axis: 7350 km
RCS: 0.0067 m2 (small)
Launch date: May 10, 1999
Source: People's Republic of China (PRC)
Launch site: Taiyaun Space Center, China (TSC)

Note: This is SATELLITE DEBRIS
aabbcc
Your satellite tracking list
Your tracking list is empty




NASA's NSSDC Master Catalog

Two Line Element Set (TLE):
1 31665U 99025CBX 19169.17424061  .00000473  00000-0  44055-3 0  9992
2 31665  98.4795  68.5894 0200158 141.5735  14.3448 13.77569733606891
Source of the keplerian elements: AFSPC